sat.trackr.live / text

‹ back to catalog

STARLINK-3518

NORAD 51732 · 2022-016U

PAYLOAD ACTIVE UNKNOWN

§ Identity

Operator
Country
US
Launch date
2022-02-21
Launch site
AFETR
Launch vehicle
Mass (kg)
RCS (m²)

Purposes: comms

External: N2YO · Heavens-Above · Gunter

§ Orbital elements

Epoch: 2026-09-20T04:24:27.714240Z

Period
93.85 min
Inclination
53.1592°
Eccentricity
0.0001484
Mean motion
15.34399814 rev/d
Perigee alt
461.7 km
Apogee alt
463.7 km
Semi-major
6,840.8 km
B*
-5.1080e-6
RAAN
151.0294°
Arg perigee
82.5040°
Mean anomaly
277.6131°
Rev number
25,427

§ Raw data

STARLINK-35181 51732U 22016U   26263.18365410 -.00000549  00000+0 -51080-5 0  99942 51732  53.1592 151.0294 0001484  82.5040 277.6131 15.34399814254277

JSON: /api/v1/satellites/51732 · /tle

For live sub-satellite position, see the globe view (requires WebGL).

§ Visibility from observer

Set your observer location to see the next 7 days of passes ≥ 10°. The values pass through the URL so the page stays shareable.

No JS? Fill the form by hand. The geolocation button needs JavaScript.